Location: Daerah Kuala Lumpur
(3.1167°N, 101.6833°E)
Time: 14:29:22
(UTC+00:00)

BlueWalker 3 - Pass Details

Date: 16 February 2026
Orbit: 451 x 458 km, 53.2° (Epoch: 6 March)

Event Time Altitude Azimuth Distance (km) Brightness Sun altitude
Rises 12:02:46 0° 299° (WNW) 2,440 6.3 -9.3°
Reaches altitude 10° 12:05:28 10° 277° (W) 1,571 5.8 -10.0°
Maximum altitude 12:07:46 16° 236° (WSW) 1,237 5.0 -10.5°
Drops below altitude 10° 12:10:04 10° 195° (SSW) 1,576 4.8 -11.1°
Sets 12:12:47 0° 174° (S) 2,451 5.5 -11.8°
